DW6352 Weather Reports


Display with metric or nautical units.
time (UTC)temp
F
wind
direction
speed
MPH
gust
MPH
rain 1hr
in
rain 24hr
in
rain mn
in
humidity
%
barometer
mb
20260831151626 74 290 2.0 8.0 0.00 0.00 0.00 91 1008.3
20260831150004 72 313 6.0 12.0 0.00 0.00 0.00 92 1008.0
20260831144521 72 306 6.0 11.0 0.00 0.00 0.00 93 1007.7
20260831143016 71 291 5.0 10.0 0.00 0.00 0.00 94 1007.7
20260831141507 71 321 2.0 4.0 0.00 0.00 0.00 94 1007.5
20260831140125 71 244 1.0 5.0 0.00 0.00 0.00 94 1007.5
20260831134516 70 298 2.0 4.0 0.00 0.00 0.00 94 1007.0
20260831133012 70 201 0.0 1.0 0.00 0.00 0.00 94 1006.9
20260831131517 69 201 0.0 1.0 0.00 0.00 0.00 94 1007.0
20260831130003 69 201 1.0 2.0 0.00 0.00 0.00 94 1007.0
20260831124509 68 201 0.0 0.0 0.00 0.00 0.00 94 1006.7
20260831123011 68 201 0.0 0.0 0.00 0.00 0.00 94 1006.3
20260831121510 66 201 0.0 1.0 0.00 0.00 0.00 94 1006.1
20260831120021 66 201 0.0 2.0 0.00 0.00 0.00 94 1005.8
20260831114514 66 201 0.0 0.0 0.00 0.00 0.00 93 1005.7
20260831113013 66 201 0.0 1.0 0.00 0.00 0.00 93 1005.7
20260831111629 67 201 0.0 3.0 0.00 0.00 0.00 93 1005.7
20260831110008 67 201 2.0 4.0 0.00 0.00 0.00 93 1005.5
20260831104505 67 201 2.0 4.0 0.00 0.00 0.00 93 1005.5
20260831103128 67 134 1.0 3.0 0.00 0.00 0.00 93 1005.4
20260831101509 67 134 0.0 2.0 0.00 0.00 0.00 92 1005.2
20260831100024 68 134 1.0 3.0 0.00 0.00 0.00 92 1005.1
20260831094523 68 134 1.0 3.0 0.00 0.00 0.00 92 1005.0
20260831093015 68 153 1.0 5.0 0.00 0.00 0.00 92 1005.2
20260831091505 68 198 1.0 4.0 0.00 0.00 0.00 92 1005.3
20260831090005 68 157 1.0 3.0 0.00 0.00 0.00 91 1005.2
20260831084507 69 164 0.0 5.0 0.00 0.00 0.00 91 1005.0
20260831083124 69 190 2.0 5.0 0.00 0.00 0.00 91 1004.9
20260831081517 69 132 2.0 4.0 0.00 0.00 0.00 90 1004.9
20260831080129 70 178 1.0 5.0 0.00 0.00 0.00 90 1004.9
20260831074513 70 166 1.0 6.0 0.00 0.00 0.00 89 1005.0
20260831073124 70 191 1.0 7.0 0.00 0.00 0.00 89 1005.0
20260831071516 70 111 3.0 10.0 0.00 0.00 0.00 89 1004.9
20260831070019 71 150 2.0 9.0 0.00 0.00 0.00 89 1005.1
20260831064511 71 116 4.0 9.0 0.00 0.00 0.00 88 1005.5
20260831063005 71 126 3.0 8.0 0.00 0.00 0.00 87 1005.6
20260831061515 72 141 3.0 9.0 0.00 0.00 0.00 87 1005.8
20260831060017 72 169 3.0 9.0 0.00 0.00 0.00 87 1005.9
20260831054519 72 180 4.0 9.0 0.00 0.00 0.00 87 1005.8
20260831053013 72 108 3.0 9.0 0.00 0.00 0.00 86 1006.0
20260831051518 72 153 3.0 9.0 0.00 0.00 0.00 87 1006.2
20260831050002 72 128 5.0 9.0 0.00 0.00 0.00 87 1006.4
20260831044512 72 131 2.0 8.0 0.00 0.00 0.00 87 1006.6
20260831043121 72 118 2.0 6.0 0.00 0.00 0.00 88 1006.9
20260831040128 71 118 2.0 4.0 0.00 0.00 0.00 90 1006.9
20260831034504 71 102 1.0 4.0 0.00 0.00 0.00 90 1006.8
20260831033126 72 99 1.0 3.0 0.00 0.00 0.00 89 1006.8
20260831031507 72 100 1.0 4.0 0.00 0.00 0.00 89 1006.8
20260831030009 72 99 2.0 4.0 0.00 0.00 0.00 88 1006.7
20260831024622 73 90 1.0 4.0 0.00 0.00 0.00 87 1006.6
20260831023007 73 58 2.0 8.0 0.00 0.00 0.00 87 1006.7
20260831021630 73 93 3.0 10.0 0.00 0.00 0.00 87 1006.5
20260831020006 74 98 5.0 10.0 0.00 0.00 0.00 86 1006.4
20260831014515 74 92 6.0 9.0 0.00 0.00 0.00 85 1006.4
20260831013010 74 88 4.0 9.0 0.00 0.00 0.00 85 1006.3
20260831011510 75 63 3.0 10.0 0.00 0.00 0.00 85 1006.3
20260831010007 75 81 4.0 13.0 0.00 0.00 0.00 84 1006.2
20260831004628 75 71 5.0 10.0 0.00 0.00 0.00 83 1006.4
20260831003124 76 46 3.0 10.0 0.00 0.00 0.00 82 1006.5
20260831001621 76 109 3.0 10.0 0.00 0.00 0.00 82 1006.6
20260831000018 76 92 5.0 12.0 0.00 0.00 0.00 81 1006.6
20260830234507 77 87 6.0 11.0 0.00 0.00 0.00 79 1006.6
20260830231504 78 92 7.0 15.0 0.00 0.00 0.00 78 1006.6
20260830230021 79 110 5.0 13.0 0.00 0.00 0.00 77 1006.6
20260830224515 78 121 6.0 13.0 0.00 0.00 0.00 79 1006.7
20260830223013 78 69 5.0 14.0 0.00 0.00 0.00 79 1006.7
20260830221505 78 110 9.0 13.0 0.00 0.00 0.00 79 1007.0
20260830220015 77 88 6.0 13.0 0.00 0.00 0.00 79 1007.0
20260830214624 77 111 6.0 13.0 0.00 0.00 0.00 78 1007.2
20260830213020 77 145 11.0 16.0 0.00 0.00 0.00 78 1007.1
20260830211629 77 117 8.0 17.0 0.00 0.00 0.00 78 1007.1
20260830210013 78 88 8.0 16.0 0.00 0.00 0.00 76 1007.1
20260830204636 78 98 6.0 15.0 0.00 0.00 0.00 78 1006.9
20260830203013 79 81 5.0 11.0 0.00 0.00 0.00 79 1007.0
20260830201643 77 94 11.0 17.0 0.00 0.00 0.00 78 1007.2
20260830200002 78 92 8.0 15.0 0.00 0.00 0.00 78 1007.3
20260830194513 77 87 7.0 15.0 0.00 0.00 0.00 77 1007.5
20260830193011 77 107 6.0 14.0 0.00 0.00 0.00 79 1008.1
20260830191507 76 83 7.0 15.0 0.00 0.00 0.00 80 1008.4
20260830190015 75 114 5.0 13.0 0.00 0.00 0.00 81 1008.4
20260830184521 74 107 5.0 13.0 0.00 0.00 0.00 83 1008.5
20260830183128 74 101 4.0 12.0 0.00 0.00 0.00 82 1008.6
20260830181513 75 106 7.0 16.0 0.00 0.00 0.00 80 1008.5
20260830180126 75 106 6.0 15.0 0.00 0.00 0.00 81 1008.3
20260830174627 75 83 10.0 17.0 0.00 0.00 0.00 80 1008.6
20260830173010 74 94 4.0 14.0 0.00 0.00 0.00 82 1008.4
20260830170017 72 72 6.0 15.0 0.00 0.00 0.00 83 1008.1
20260830164508 72 79 6.0 15.0 0.00 0.01 0.00 83 1008.2
20260830163006 72 101 6.0 12.0 0.00 0.01 0.00 83 1008.2
20260830161510 72 70 7.0 16.0 0.00 0.01 0.00 83 1008.5
20260830160124 71 26 4.0 11.0 0.00 0.01 0.00 86 1008.7
20260830154513 71 32 7.0 12.0 0.00 0.01 0.00 87 1008.4
20260830153013 69 66 7.0 13.0 0.00 0.01 0.00 88 1008.5